Hyannis, MA

9:44 PM EDT on May 26, 2018 (GMT -0400)
Barnstable Municipal-Boardman-Polando Field

Weather History for KHYA - November, 2010

Change the Weather History Date:

Tuesday, November 23, 2010

  Actual Average Record
Temperature  
Mean Temperature 56 °F -  
Max Temperature 59 °F 48 °F 63 °F (1931)
Min Temperature 52 °F 33 °F 17 °F (1949)
Degree Days  
Heating Degree Days 10    
Growing Degree Days 6 (Base 50)    
Moisture  
Dew Point 50 °F    
Average Humidity 86    
Maximum Humidity 93    
Minimum Humidity 59    
Precipitation  
Precipitation 0.00 in - - ()
Sea Level Pressure  
Sea Level Pressure 29.86 in    
Wind  
Wind Speed 11 mph (SW)    
Max Wind Speed 22 mph    
Max Gust Speed 29 mph    
Visibility 9 miles    
Events      
Averages and records for this station are not official NWS values.
T = Trace of Precipitation, MM = Missing Value Source: NWS Daily Summary

Daily Weather History Graph

Daily Weather History Graph

Search for Another Location

Airport or City:

Astronomy

Nov. 23, 2010 Rise Set
Actual Time 6:39 AM EST 4:15 PM EST
Civil Twilight 6:09 AM EST 4:45 PM EST
Nautical Twilight 5:35 AM EST 5:19 PM EST
Astronomical Twilight 5:01 AM EST 5:52 PM EST
Moon 5:51 PM EST (11/23) 8:35 AM EST (11/23)
Length of Visible Light 10h 36m
Length of Day
9h 35m
Waning Gibbous, 96% of the Moon is Illuminated
Nov 23
Waning Gibbous
Nov 28
Last Quarter
Dec 5
New
Dec 13
First Quarter
Dec 21
Full

Hourly Weather History & Observations

Time (EST) Temp. Dew Point Humidity Pressure Visibility Wind Dir Wind Speed Gust Speed Precip Events Conditions
12:56 AM 55.9 °F 52.0 °F 87% 30.09 in 10.0 mi SW 12.7 mph - N/A   Overcast
1:56 AM 55.0 °F 51.1 °F 86% 30.07 in 10.0 mi SW 11.5 mph - 0.00 in   Overcast
3:56 AM 53.1 °F 50.0 °F 89% 30.03 in 10.0 mi SW 10.4 mph - N/A   Scattered Clouds
4:56 AM 52.0 °F 50.0 °F 93% 30.01 in 9.0 mi SW 6.9 mph - N/A   Overcast
5:56 AM 52.0 °F 50.0 °F 93% 29.99 in 9.0 mi SSW 6.9 mph - N/A   Overcast
6:56 AM 53.1 °F 51.1 °F 93% 29.98 in 8.0 mi SW 9.2 mph - N/A   Overcast
7:56 AM 53.1 °F 51.1 °F 93% 29.97 in 7.0 mi SSW 9.2 mph - N/A   Partly Cloudy
8:56 AM 55.9 °F 52.0 °F 87% 29.95 in 10.0 mi SW 11.5 mph - N/A   Clear
9:56 AM 59.0 °F 52.0 °F 78% 29.93 in 10.0 mi SW 21.9 mph 28.8 mph N/A   Clear
11:56 AM 59.0 °F 51.1 °F 75% 29.86 in 10.0 mi SW 11.5 mph 19.6 mph N/A   Clear
12:56 PM 57.9 °F 51.1 °F 78% 29.84 in 10.0 mi SW 20.7 mph 27.6 mph N/A   Clear
1:56 PM 55.9 °F 52.0 °F 87% 29.81 in 8.0 mi SW 17.3 mph 25.3 mph N/A   Clear
2:56 PM 55.0 °F 51.1 °F 86% 29.77 in 8.0 mi SSW 8.1 mph - N/A   Clear
3:56 PM 54.0 °F 51.1 °F 90% 29.75 in 6.0 mi SSW 9.2 mph - N/A   Clear
4:56 PM 53.1 °F 51.1 °F 93% 29.73 in 7.0 mi SW 11.5 mph - 0.00 in   Partly Cloudy
5:56 PM 54.0 °F 52.0 °F 93% 29.73 in 8.0 mi SW 13.8 mph 21.9 mph N/A   Scattered Clouds
6:56 PM 54.0 °F 51.1 °F 90% 29.71 in 9.0 mi WSW 9.2 mph - N/A   Clear
7:56 PM 54.0 °F 51.1 °F 90% 29.71 in 9.0 mi WSW 10.4 mph - N/A   Overcast
8:56 PM 53.1 °F 50.0 °F 89% 29.73 in 9.0 mi West 9.2 mph - N/A   Scattered Clouds
9:56 PM 52.0 °F 48.9 °F 89% 29.72 in 9.0 mi West 9.2 mph - N/A   Clear
10:56 PM 52.0 °F 46.0 °F 80% 29.73 in 10.0 mi West 10.4 mph - N/A   Clear
11:56 PM 53.1 °F 39.0 °F 59% 29.75 in 10.0 mi WNW 10.4 mph - N/A   Clear